FW9516 Weather Reports


Display with metric or nautical units.
time (UTC)temp
F
wind
direction
speed
MPH
gust
MPH
rain 1hr
in
rain 24hr
in
rain mn
in
humidity
%
barometer
mb
20260507084528 49 0 0.0 1.0 0.00 0.00 0.00 81 1021.1
20260507083028 50 0 0.0 2.0 0.00 0.00 0.00 80 1021.2
20260507081533 51 0 0.0 3.0 0.00 0.00 0.00 79 1021.1
20260507080030 51 0 0.0 0.0 0.00 0.00 0.00 79 1021.1
20260507074533 52 0 0.0 5.0 0.00 0.00 0.00 78 1021.1
20260507073030 52 209 1.0 6.0 0.00 0.00 0.00 79 1021.0
20260507071534 52 134 0.0 8.0 0.00 0.00 0.00 78 1020.9
20260507070033 52 242 2.0 8.0 0.00 0.00 0.00 78 1020.8
20260507064540 52 209 2.0 8.0 0.00 0.00 0.00 79 1021.0
20260507063030 52 246 1.0 5.0 0.00 0.00 0.00 79 1020.9
20260507061533 52 144 1.0 4.0 0.00 0.00 0.00 80 1021.0
20260507060028 53 294 1.0 8.0 0.00 0.00 0.00 81 1021.0
20260507054528 53 214 1.0 8.0 0.00 0.00 0.00 82 1021.1
20260507053034 53 207 1.0 10.0 0.00 0.00 0.00 82 1021.1
20260507051528 53 213 2.0 6.0 0.00 0.00 0.00 81 1021.1
20260507050032 54 211 1.0 7.0 0.00 0.00 0.00 81 1021.1
20260507044529 54 235 1.0 6.0 0.00 0.00 0.00 81 1021.1
20260507043031 54 224 3.0 7.0 0.00 0.00 0.00 81 1021.2
20260507041541 54 221 2.0 5.0 0.00 0.00 0.00 81 1021.1
20260507040030 54 240 2.0 6.0 0.00 0.00 0.00 81 1021.0
20260507034532 55 0 3.0 7.0 0.00 0.00 0.00 80 1020.9
20260507033030 55 190 3.0 9.0 0.00 0.00 0.00 79 1020.8
20260507031528 55 197 2.0 9.0 0.00 0.00 0.00 79 1020.7
20260507030029 55 242 3.0 6.0 0.00 0.00 0.00 78 1020.6
20260507024532 56 235 2.0 7.0 0.00 0.00 0.00 78 1020.5
20260507023028 56 218 1.0 4.0 0.00 0.00 0.00 77 1020.3
20260507021530 56 265 2.0 6.0 0.00 0.00 0.00 77 1020.2
20260507020032 57 242 2.0 8.0 0.00 0.00 0.00 76 1020.4
20260507014528 57 0 2.0 7.0 0.00 0.00 0.00 75 1020.3
20260507013033 57 0 2.0 8.0 0.00 0.00 0.00 75 1020.2
20260507011528 58 267 3.0 8.0 0.00 0.00 0.00 74 1020.3
20260507010033 58 201 3.0 13.0 0.00 0.00 0.00 74 1020.3
20260507004530 58 249 1.0 8.0 0.00 0.00 0.00 74 1020.3
20260507003027 58 204 3.0 8.0 0.00 0.00 0.00 74 1020.4
20260507001533 59 221 3.0 9.0 0.00 0.00 0.00 75 1020.5
20260507000030 59 214 3.0 9.0 0.00 0.00 0.00 74 1020.5
20260506234544 59 232 4.0 9.0 0.00 0.00 0.00 73 1020.5
20260506233030 60 138 3.0 9.0 0.00 0.00 0.00 72 1020.5
20260506231529 60 248 4.0 10.0 0.00 0.00 0.00 71 1020.4
20260506230029 61 230 2.0 9.0 0.00 0.00 0.00 71 1020.3
20260506224530 60 254 1.0 11.0 0.00 0.00 0.00 72 1020.4
20260506223032 60 258 3.0 8.0 0.00 0.00 0.00 72 1020.4
20260506221527 59 209 3.0 10.0 0.00 0.00 0.00 73 1020.6
20260506220036 60 285 3.0 8.0 0.00 0.00 0.00 71 1020.5
20260506214530 60 242 5.0 14.0 0.00 0.00 0.00 70 1020.6
20260506213028 61 224 4.0 10.0 0.00 0.00 0.00 68 1020.6
20260506211527 60 194 3.0 12.0 0.00 0.00 0.00 71 1020.5
20260506210030 58 172 4.0 9.0 0.00 0.00 0.00 75 1020.6
20260506204535 58 0 3.0 8.0 0.00 0.00 0.00 77 1020.6
20260506203028 57 288 3.0 14.0 0.00 0.00 0.00 78 1020.6
20260506201528 57 296 3.0 12.0 0.00 0.00 0.00 79 1020.5
20260506200030 57 190 1.0 9.0 0.00 0.00 0.00 79 1020.6
20260506194535 57 201 3.0 10.0 0.00 0.00 0.00 80 1020.4
20260506193030 56 219 2.0 10.0 0.00 0.00 0.00 81 1020.5
20260506191530 55 225 1.0 6.0 0.00 0.00 0.00 83 1020.4
20260506190027 55 242 2.0 13.0 0.00 0.00 0.00 84 1020.5
20260506184530 55 199 3.0 9.0 0.00 0.00 0.00 84 1020.5
20260506183030 55 143 4.0 14.0 0.00 0.00 0.00 85 1020.1
20260506181530 54 199 1.0 9.0 0.00 0.00 0.00 86 1020.2
20260506180030 54 0 1.0 7.0 0.00 0.00 0.00 87 1020.3
20260506174529 54 132 2.0 8.0 0.00 0.00 0.00 87 1020.2
20260506173030 53 163 1.0 5.0 0.00 0.00 0.00 88 1020.4
20260506171530 53 209 1.0 8.0 0.00 0.00 0.00 88 1020.3
20260506170029 53 267 1.0 7.0 0.00 0.00 0.00 89 1020.3
20260506164528 52 153 2.0 8.0 0.00 0.00 0.00 89 1020.2
20260506163030 52 203 2.0 5.0 0.00 0.00 0.00 89 1020.2
20260506161532 52 209 1.0 6.0 0.00 0.00 0.00 90 1020.1
20260506160038 52 215 1.0 5.0 0.00 0.00 0.00 90 1020.2
20260506154532 51 210 1.0 6.0 0.00 0.00 0.00 90 1020.0
20260506153029 52 174 0.0 5.0 0.00 0.00 0.00 91 1019.9
20260506151532 51 249 0.0 3.0 0.00 0.00 0.00 91 1019.9
20260506150029 51 215 0.0 5.0 0.00 0.00 0.00 90 1020.0
20260506144527 51 243 1.0 4.0 0.00 0.00 0.00 90 1019.6
20260506143033 51 213 2.0 5.0 0.00 0.00 0.00 90 1019.4
20260506141528 51 230 1.0 4.0 0.00 0.00 0.00 90 1019.5
20260506140030 51 0 1.0 5.0 0.00 0.00 0.00 90 1019.5
20260506134530 51 204 4.0 7.0 0.00 0.00 0.00 90 1019.5
20260506133030 51 0 1.0 4.0 0.00 0.00 0.00 90 1019.4
20260506131543 51 0 0.0 4.0 0.00 0.00 0.00 90 1019.2
20260506130037 52 223 2.0 4.0 0.00 0.00 0.00 90 1019.1
20260506124531 52 0 1.0 6.0 0.00 0.00 0.00 89 1018.9
20260506123028 52 238 1.0 4.0 0.00 0.00 0.00 89 1018.8
20260506121530 52 227 2.0 6.0 0.00 0.00 0.00 89 1018.7
20260506120028 52 248 1.0 4.0 0.00 0.00 0.00 90 1018.6
20260506114528 52 0 0.0 4.0 0.00 0.00 0.00 90 1018.6
20260506113030 52 192 0.0 2.0 0.00 0.00 0.00 90 1018.7
20260506111532 52 0 0.0 2.0 0.00 0.00 0.00 90 1018.6
20260506110028 52 0 0.0 3.0 0.00 0.00 0.00 90 1018.5
20260506104530 52 0 0.0 4.0 0.00 0.00 0.00 90 1018.4
20260506103037 52 0 0.0 3.0 0.00 0.00 0.00 91 1018.2
20260506101528 52 0 0.0 2.0 0.00 0.00 0.00 91 1018.0
20260506100035 52 0 0.0 0.0 0.00 0.00 0.00 91 1017.8
20260506094535 51 0 0.0 0.0 0.00 0.00 0.00 92 1017.8
20260506093035 51 0 0.0 0.0 0.00 0.00 0.00 92 1017.6
20260506091531 50 0 0.0 0.0 0.00 0.00 0.00 91 1017.8
20260506090028 50 0 0.0 0.0 0.00 0.00 0.00 91 1017.7